Theta_e
307 307 307 305 304 302 301 301 301 301 301 301 302 302 302 303 303 304 302 309 301 293 294 297 297 291 293 291 286 292 291 293 293 290 289 289 285 289 287 290 288 286 285 287 287 283 282 295 291 288 294 296 295 298
307 306 304 303 301 301 300 299 299 300 300 300 300 301 301 301 302 304 300 307 307 297 295 303 302 303 300 297 293 293 292 291 292 292 295 293 289 291 289 285 295 287 289 286 286 288 296 297 292 294 295 293 296 299
306 304 302 301 300 299 299 299 299 299 299 300 300 300 301 301 301 301 301 306 302 295 296 299 299 304 305 303 306 292 294 297 295 298 291 291 288 292 287 290 291 294 297 289 288 294 295 297 298 298 299 298 301 306
303 302 300 300 299 299 299 299 299 299 299 300 301 302 302 302 302 302 300 304 301 295 289 296 305 303 307 306 305 304 303 304 303 299 292 290 289 295 292 293 290 295 296 290 290 293 295 296 297 298 300 302 305 309
301 300 299 299 299 298 298 299 298 299 299 301 302 303 302 302 303 303 302 301 302 295 289 292 301 305 305 306 303 303 301 299 296 293 290 289 293 294 295 293 294 299 295 290 289 295 295 295 300 301 300 301 305 306
299 299 299 298 298 298 298 298 299 299 300 301 302 302 302 301 302 301 295 302 304 301 291 286 303 301 303 306 302 300 301 298 295 294 293 294 298 294 289 292 298 300 301 301 297 300 300 301 302 302 300 302 305 304
298 298 298 298 298 298 298 298 298 299 301 302 301 302 301 302 303 297 296 301 304 303 293 288 292 302 302 304 303 300 299 298 297 294 293 295 297 297 293 290 297 300 301 300 302 301 298 299 297 300 301 303 303 304
297 297 297 297 297 297 297 298 299 300 301 302 302 300 301 305 302 298 304 304 304 297 295 288 291 298 304 301 299 302 297 297 296 295 300 297 299 298 293 298 300 301 302 301 301 301 298 299 299 298 300 302 300 300
297 297 297 297 296 297 297 298 299 300 301 301 299 300 305 302 298 301 306 305 303 297 290 291 288 291 302 301 304 301 300 292 299 294 299 300 294 293 298 298 300 301 301 300 301 299 298 296 297 298 298 299 298 298
296 296 296 296 296 297 297 298 300 300 300 299 298 300 296 301 300 303 300 296 294 294 293 290 297 292 299 299 298 300 298 295 292 298 305 297 296 302 303 302 303 303 303 302 298 296 296 295 296 298 298 299 298 298
296 296 296 296 296 297 297 298 299 299 299 296 293 293 298 302 302 299 293 292 291 289 292 295 296 292 301 294 295 301 295 297 291 297 296 294 296 300 302 302 304 305 304 303 302 301 299 297 297 297 298 299 299 299
295 295 296 296 296 297 297 297 298 297 296 294 295 296 295 294 294 291 290 293 291 290 296 295 295 295 296 302 297 294 291 296 288 298 295 291 300 301 302 303 304 305 304 303 303 300 300 297 297 298 298 298 297 300
295 295 295 296 297 297 298 297 298 298 298 297 293 289 290 292 285 284 283 287 290 297 297 295 292 295 296 297 296 294 291 291 298 293 292 295 302 302 303 304 304 306 305 304 302 302 301 299 298 299 299 299 299 299
295 295 296 296 297 297 297 297 298 297 295 290 288 283 286 286 286 290 290 291 297 295 295 296 295 291 297 292 294 291 296 296 289 287 290 298 303 302 304 304 305 304 304 303 302 303 301 299 299 298 299 299 298 297
295 296 297 297 296 296 297 297 298 298 294 287 288 281 287 292 293 293 294 294 297 297 297 294 296 290 287 289 293 295 290 287 291 291 297 301 304 304 304 305 305 305 305 304 303 303 302 300 300 298 299 299 297 296
296 296 297 295 296 297 297 298 298 294 290 288 287 285 289 288 289 289 291 291 295 295 296 295 293 291 290 292 290 290 289 289 294 300 301 304 306 305 306 306 306 306 306 306 305 304 303 301 300 299 300 298 297 295
295 295 294 296 297 297 297 294 292 287 285 283 285 291 289 289 289 291 291 291 295 293 290 294 288 287 295 289 289 296 293 296 300 301 304 306 307 306 307 306 306 307 307 307 306 305 304 303 302 300 298 298 298 295
295 296 296 297 297 297 297 297 291 288 283 288 286 288 290 291 290 291 293 295 294 292 292 291 295 290 288 287 292 298 300 300 304 305 306 308 307 308 308 306 307 308 308 307 307 306 305 303 301 300 300 300 300 299
295 297 296 296 296 294 288 291 293 285 287 289 290 291 291 292 293 294 294 294 295 295 293 293 290 289 292 296 296 297 299 301 300 303 306 308 309 308 308 308 308 309 308 308 308 306 306 304 302 302 301 301 299 300
296 295 295 295 295 292 285 290 295 288 286 288 290 289 290 290 292 293 294 294 294 292 289 288 290 291 292 293 296 298 299 302 302 301 303 307 308 309 309 309 309 310 309 309 308 302 305 303 303 303 302 301 300 299
295 295 295 295 295 294 290 289 288 290 289 288 290 290 289 291 291 292 291 294 293 291 289 291 292 295 297 298 299 300 299 301 301 301 300 302 307 307 309 309 310 309 308 308 306 304 302 304 304 302 302 301 301 300
296 294 296 295 291 290 290 294 289 290 288 288 289 288 287 287 288 290 294 291 288 290 290 290 290 292 294 296 298 298 299 300 302 303 299 301 304 306 308 309 309 307 307 308 307 306 306 306 304 303 302 301 300 300
294 294 294 291 285 286 284 294 286 288 284 285 287 284 285 286 289 292 287 287 287 289 289 289 289 291 292 295 296 298 298 298 298 300 302 304 306 307 307 308 310 309 308 308 309 308 307 299 300 302 302 301 301 299
293 289 284 285 286 282 288 286 290 287 286 284 283 281 283 286 288 288 283 285 287 289 288 288 288 289 291 292 291 292 297 297 296 297 301 302 303 306 308 309 310 310 311 311 309 308 308 305 299 302 301 300 300 299
283 281 284 278 286 282 280 282 282 283 280 283 281 282 284 288 284 283 282 283 285 286 286 287 288 288 287 287 288 290 292 291 291 292 297 301 303 306 308 310 310 310 311 310 308 308 307 306 304 303 302 301 300 299
278 281 281 282 284 282 283 279 280 281 282 280 282 286 288 285 282 280 282 284 285 285 285 285 286 286 286 287 286 286 287 290 290 292 298 300 300 303 306 307 308 308 311 311 310 308 306 305 304 303 302 299 291 299
277 280 285 290 289 287 285 286 286 285 280 280 284 283 284 279 279 283 286 287 285 285 288 289 288 287 286 287 288 287 288 288 290 297 296 297 297 298 299 299 302 306 311 311 311 310 307 305 304 304 303 302 300 300
285 285 282 285 285 286 281 282 281 281 284 288 286 281 279 278 279 284 286 288 288 289 290 290 290 291 290 290 289 288 288 287 290 292 293 293 294 294 294 297 302 291 305 310 310 310 309 307 306 304 304 302 301 301
284 288 287 282 282 282 283 283 284 288 291 289 285 282 283 284 285 284 286 287 289 288 286 286 287 290 290 291 292 290 288 286 284 283 284 284 285 287 289 292 295 301 304 308 291 297 308 307 307 306 303 300 299 300
285 289 284 283 282 283 287 290 289 291 291 291 290 287 285 284 286 288 288 287 286 285 286 287 287 286 286 286 286 289 290 288 286 283 281 282 284 287 288 288 289 293 300 306 307 305 289 301 297 300 298 298 297 295
289 288 284 285 285 289 292 293 292 291 289 290 290 287 285 284 286 287 285 286 287 287 286 285 285 285 284 284 284 284 284 287 287 287 287 287 287 288 288 288 287 288 293 298 302 303 303 302 302 299 297 295 294 292
287 285 284 282 286 291 293 290 289 287 287 286 285 286 285 284 281 282 284 284 284 282 282 283 283 283 285 286 286 286 284 286 286 285 285 286 287 287 288 289 290 290 289 290 290 290 290 290 290 290 289 290 290 290
284 285 285 286 286 284 289 288 286 284 285 284 284 285 284 283 278 281 286 285 284 282 283 284 286 287 286 286 285 285 285 286 284 283 282 283 282 282 286 289 289 288 288 287 287 287 286 284 283 282 283 283 283 283
Wind_Speed
12 13 11 11 13 13 14 15 16 17 16 16 15 15 15 15 14 6 7 5 4 5 12 17 19 12 8 5 4 7 9 2 6 4 3 3 3 4 4 9 8 4 4 2 4 6 3 8 9 6 10 19 16 17
11 8 10 12 12 13 14 15 16 16 16 16 16 15 15 13 14 9 6 3 3 6 8 19 22 23 24 21 9 3 6 6 4 3 3 3 4 4 6 5 4 2 3 4 4 4 13 12 8 15 16 17 21 17
9 8 9 10 12 13 14 15 16 17 17 17 16 16 15 14 13 10 7 7 3 4 11 11 4 4 10 14 14 6 5 7 5 3 2 3 5 3 4 5 7 6 7 3 4 4 14 14 9 11 13 17 21 21
7 9 9 10 12 13 14 15 16 17 18 18 17 17 16 14 12 11 7 5 2 3 5 3 3 11 12 13 15 21 10 3 3 2 3 3 4 4 4 6 8 7 6 4 8 13 14 1 12 12 15 16 9 7
6 8 10 11 12 14 15 16 17 19 19 18 18 18 16 16 13 10 8 9 8 4 4 8 20 6 4 10 15 15 16 12 4 2 3 3 4 4 4 3 9 3 8 3 4 12 10 7 14 13 16 16 10 8
5 8 10 12 13 15 15 17 19 20 20 20 20 21 22 19 12 4 4 1 3 5 3 5 7 5 3 6 8 11 11 8 4 3 2 4 6 2 3 5 6 10 10 9 8 12 13 12 13 15 17 16 11 10
5 8 10 12 13 15 16 18 20 21 22 22 24 24 23 14 7 5 2 3 3 5 3 5 5 5 6 4 4 4 5 5 4 3 5 4 4 5 3 5 7 12 13 9 9 13 12 13 11 14 16 16 11 14
5 8 10 12 13 16 18 20 21 22 23 25 26 21 15 1 2 4 8 8 2 2 3 4 6 5 5 4 4 5 4 4 5 3 4 4 3 3 5 4 7 8 8 7 11 12 10 12 13 12 12 11 14 16
6 8 10 12 14 16 18 20 21 22 24 26 22 15 5 3 3 0 6 3 6 3 3 3 3 4 3 3 2 5 3 4 3 4 4 4 2 6 4 7 8 9 9 9 10 14 15 15 14 13 12 14 14 14
6 8 10 13 13 15 17 19 20 22 26 22 8 4 3 2 10 8 2 4 3 4 4 5 5 7 7 4 3 2 4 3 4 5 2 3 5 8 6 2 5 7 8 9 12 12 12 15 15 15 14 12 10 9
7 9 11 12 13 16 17 18 19 22 9 5 5 3 7 8 5 5 4 5 5 5 5 6 8 7 3 5 3 2 2 3 3 2 4 2 3 2 5 5 5 5 6 6 8 8 10 9 10 12 13 14 15 15
7 9 11 13 14 16 17 15 15 10 7 9 11 11 4 4 5 5 5 4 6 5 5 4 1 3 3 4 3 2 3 2 3 3 3 3 0 5 5 4 4 5 5 7 8 8 10 11 12 11 10 11 12 13
8 10 11 12 14 11 13 14 15 15 15 3 3 4 4 3 5 6 5 5 5 3 4 2 1 2 3 4 3 3 4 3 2 3 3 3 3 6 5 5 4 4 5 5 6 8 11 12 13 13 12 10 10 11
8 11 12 12 11 11 14 15 15 13 5 4 4 5 5 4 5 4 6 7 3 4 3 5 3 2 3 4 4 4 3 2 3 3 2 3 1 6 7 5 4 3 4 5 6 8 11 11 13 13 14 12 11 10
9 12 14 13 6 15 17 17 16 7 4 5 3 5 4 5 8 8 7 8 6 6 6 5 3 4 2 1 3 2 4 4 4 2 4 4 4 6 7 6 4 3 4 6 5 7 10 10 12 12 13 12 12 12
8 12 0 6 13 16 19 15 3 0 2 4 4 6 6 10 8 4 4 5 9 7 7 5 5 3 4 1 4 5 2 3 2 2 4 3 1 6 7 5 5 4 5 6 6 7 7 9 10 11 11 12 13 14
7 3 4 13 16 18 8 1 1 2 2 3 4 5 7 8 10 9 7 5 6 7 4 4 4 3 1 2 3 2 1 4 5 5 3 3 1 5 5 5 5 7 5 6 6 6 7 7 8 9 12 11 13 13
3 2 8 13 12 7 1 1 2 2 3 5 6 9 9 8 8 9 7 5 5 5 5 4 6 4 2 3 1 2 1 5 7 4 4 3 3 4 6 5 6 6 7 6 6 7 6 5 6 7 9 7 8 10
5 8 11 7 7 2 2 2 2 4 4 6 6 7 8 8 8 8 7 7 6 4 5 4 6 4 3 6 9 8 9 9 9 9 7 6 5 3 6 6 6 6 8 8 8 5 5 5 6 5 5 6 7 7
7 3 5 5 4 2 2 1 1 4 4 5 8 8 10 8 7 6 6 4 3 4 4 4 4 5 5 5 8 9 8 10 10 9 7 5 5 4 3 6 6 7 7 8 7 6 6 5 5 5 5 6 6 8
4 3 2 4 1 1 3 3 3 2 5 5 8 10 8 7 6 3 2 4 3 4 5 5 7 8 11 10 7 7 9 9 9 8 9 9 8 6 3 4 6 7 7 7 8 7 5 6 5 6 6 7 7 8
2 3 1 1 0 1 2 1 5 6 4 6 7 7 6 7 6 7 8 6 4 4 5 6 9 10 12 12 11 10 10 10 11 9 6 7 8 7 5 4 7 8 8 8 8 8 8 8 7 7 7 8 7 8
2 3 2 1 1 1 3 2 4 4 4 7 7 6 4 5 6 8 3 5 4 5 8 7 10 12 13 12 10 7 7 9 8 9 9 7 8 8 6 7 6 8 9 9 8 9 8 9 8 8 9 8 8 8
1 1 1 1 0 1 3 2 2 3 3 5 5 6 7 6 6 2 4 4 6 8 8 11 9 7 8 11 8 9 10 9 9 9 8 9 8 7 6 7 6 7 7 8 8 9 10 11 11 10 10 10 9 8
3 1 2 1 2 1 2 3 3 2 4 9 4 4 4 3 2 4 5 7 10 9 9 10 9 8 8 8 8 9 12 10 9 10 9 8 9 7 6 5 5 5 6 8 10 12 12 12 12 12 12 11 12 12
3 4 4 3 2 2 2 2 2 5 5 3 3 4 2 3 3 5 6 8 9 9 11 10 10 9 9 9 9 10 11 10 9 7 5 6 7 9 9 6 4 6 6 8 10 13 14 14 14 17 14 13 8 13
4 4 4 2 1 2 2 2 3 2 3 2 3 4 3 3 4 4 5 6 6 8 8 7 8 8 8 10 10 10 9 9 10 5 8 9 10 10 9 9 9 8 3 9 9 12 14 15 15 15 14 13 14 13
2 4 5 4 3 2 3 2 3 3 2 0 3 3 3 3 3 4 4 8 8 8 7 8 9 8 8 8 9 10 12 12 11 9 6 8 8 9 13 11 10 13 7 6 7 10 12 14 15 16 16 15 14 13
4 3 4 5 4 4 5 4 3 1 2 2 1 3 3 3 3 4 5 6 6 7 8 9 10 10 10 9 10 9 10 12 17 19 17 11 11 10 12 11 13 11 8 4 2 5 9 11 13 14 14 11 9 9
6 5 4 5 4 5 4 4 2 0 3 2 3 4 4 3 3 4 5 6 7 7 7 8 9 10 11 12 12 13 11 11 11 10 9 10 10 9 10 11 11 13 13 6 4 5 4 8 10 10 11 9 7 8
5 4 3 3 3 2 1 2 2 3 3 2 3 3 5 5 3 7 8 8 7 7 8 9 9 10 11 11 11 12 12 13 16 17 15 9 9 11 11 11 10 10 13 12 7 4 7 7 7 9 11 10 12 11
5 6 5 5 3 3 3 3 3 4 4 4 3 4 4 4 3 3 6 7 8 8 9 8 9 9 10 9 9 8 7 10 13 14 18 14 13 14 12 11 11 10 11 12 14 12 13 13 9 8 8 8 8 6
4 4 5 3 2 3 3 2 1 4 2 2 3 2 2 3 4 3 4 6 6 7 7 6 6 6 9 11 12 9 9 9 10 11 15 15 16 16 11 10 10 11 14 13 13 14 17 19 15 15 15 15 15 16
Wind_Direction
302 306 321 337 334 334 336 335 335 334 332 333 330 328 324 321 325 321 289 229 226 259 273 262 269 259 245 220 245 315 310 75 284 322 328 10 288 317 288 285 294 289 300 297 259 239 260 9 316 250 338 314 298 303
302 317 334 328 330 333 334 334 333 326 327 327 325 324 316 318 314 318 276 328 271 250 274 297 281 267 259 252 257 217 285 335 280 305 337 314 275 262 302 288 318 286 256 290 250 302 288 295 247 272 269 271 280 283
305 320 323 325 330 328 329 328 330 326 325 321 320 315 312 309 306 299 287 281 228 257 272 249 246 219 215 233 228 219 225 206 222 219 312 281 267 278 277 282 311 294 312 264 305 274 293 311 293 293 283 266 273 263
309 315 318 322 324 325 326 328 323 324 319 319 316 309 306 304 296 283 270 261 265 286 279 269 244 272 284 214 217 213 254 221 263 169 238 256 258 237 273 284 288 267 350 274 258 273 306 258 312 329 312 312 342 308
303 313 314 319 323 323 322 326 323 316 321 312 308 304 313 311 296 286 267 256 244 241 285 296 303 260 229 216 219 219 228 246 276 253 221 242 252 280 262 270 251 316 330 267 285 301 312 315 336 336 329 335 4 1
298 308 311 317 322 322 328 323 320 321 314 315 320 313 306 302 290 286 280 114 200 177 260 285 342 257 228 222 206 214 216 222 213 246 235 235 252 230 282 277 336 309 328 331 329 329 309 333 316 343 335 335 8 8
297 305 311 316 321 326 326 324 319 316 316 317 313 309 304 288 232 215 315 25 115 155 249 278 278 166 223 196 169 181 193 203 211 233 223 246 249 203 248 283 313 346 354 347 317 342 349 1 346 348 332 345 14 20
289 300 310 317 322 327 325 322 322 318 318 315 313 312 310 181 160 244 247 211 191 259 238 267 266 249 171 210 199 162 182 202 200 249 235 237 253 224 249 326 345 2 335 353 2 26 6 340 350 345 332 3 27 23
283 299 311 317 324 327 324 325 322 323 322 319 314 308 196 240 200 115 140 194 189 230 268 239 267 301 159 251 225 189 172 215 185 230 237 217 193 242 319 351 8 8 360 359 3 27 5 358 348 349 7 19 28 23
279 297 310 314 325 324 323 323 329 334 323 312 286 225 210 101 330 282 145 204 182 190 226 249 230 251 308 284 250 199 174 227 231 213 216 246 259 265 254 311 0 29 11 18 14 15 6 353 347 355 10 31 16 19
280 298 309 315 323 320 322 326 332 332 310 335 330 305 352 319 248 207 238 218 168 219 208 219 224 238 244 249 287 349 334 266 263 89 280 306 267 92 131 144 83 70 36 37 43 15 31 4 353 355 6 18 26 24
284 301 306 316 319 318 318 319 332 328 335 304 294 306 285 271 236 237 210 205 225 238 178 235 125 220 269 262 258 152 249 236 268 340 263 256 235 129 160 130 106 85 62 35 48 30 26 31 13 27 35 28 24 33
286 299 308 317 324 345 347 338 331 324 307 286 233 240 230 221 240 228 212 217 214 210 56 96 176 277 213 236 259 235 233 244 327 249 269 281 49 148 156 135 127 96 73 49 58 43 34 33 39 35 46 47 43 38
290 296 305 312 309 331 331 331 328 326 275 276 276 270 244 211 245 263 297 354 354 133 241 263 180 242 230 179 227 229 147 216 232 233 260 20 260 172 157 165 148 114 81 46 48 43 45 35 39 30 42 47 56 47
297 303 306 293 295 323 324 323 315 283 267 268 262 256 240 326 319 310 328 323 342 297 309 304 225 159 268 352 261 243 190 233 217 246 29 11 311 197 177 168 167 145 112 78 48 41 43 43 47 44 41 48 55 60
309 300 158 340 326 321 318 309 307 314 273 281 269 293 319 315 336 347 342 337 323 327 299 258 268 266 227 239 203 203 211 229 353 22 20 332 248 206 196 184 177 171 111 99 80 75 61 52 55 62 54 54 56 52
294 234 15 328 322 317 327 321 243 231 297 289 277 283 291 316 310 314 320 311 312 297 293 296 254 271 339 270 288 10 189 357 339 10 38 32 295 188 179 178 198 161 153 121 110 88 74 73 74 72 63 56 68 70
251 332 320 323 325 310 349 275 280 278 267 266 302 324 330 304 297 302 311 322 322 332 307 315 312 276 286 278 305 134 234 310 314 359 9 23 104 187 166 193 194 175 153 136 122 111 103 83 85 87 89 86 82 80
321 319 329 330 329 321 336 302 297 301 292 317 301 315 311 307 285 282 287 291 294 292 292 278 267 262 315 13 359 355 346 349 341 329 323 332 50 203 214 192 208 191 163 158 152 142 112 78 83 80 82 80 71 70
290 334 340 338 287 250 261 220 250 273 283 328 299 329 324 307 312 298 301 300 283 208 218 245 325 11 347 342 318 317 328 324 321 316 317 341 36 47 228 214 218 180 176 162 149 134 134 129 127 117 82 76 89 86
234 41 296 290 93 288 305 316 272 292 308 302 312 319 333 320 319 336 354 333 228 28 347 6 326 324 329 317 303 312 313 323 319 311 312 306 333 335 320 211 188 191 182 182 168 152 175 142 132 122 139 99 92 86
83 263 286 130 323 173 267 230 304 321 281 299 301 330 324 335 333 18 345 24 47 11 350 328 336 325 316 321 330 322 317 328 318 305 273 273 282 283 290 241 201 198 202 190 191 173 167 146 145 146 133 121 127 125
202 220 198 74 7 86 277 289 275 325 310 316 316 316 359 353 346 348 60 35 30 345 338 329 322 319 314 314 314 321 340 331 321 323 317 309 286 267 263 260 224 212 203 194 195 175 169 142 152 149 134 151 132 128
156 160 148 127 134 320 307 285 258 289 286 320 321 332 3 357 334 27 63 28 351 337 341 341 336 332 339 354 349 334 341 334 320 314 317 318 304 293 271 256 229 223 218 178 189 169 159 172 153 159 162 155 152 149
176 137 171 203 198 287 269 305 335 332 309 334 320 6 351 319 327 52 25 1 345 351 347 342 349 352 342 338 340 341 341 335 320 312 305 308 307 286 263 242 229 204 196 172 184 178 169 167 175 170 168 169 166 160
167 167 181 166 156 224 334 316 345 317 341 322 329 354 10 314 31 47 11 346 345 344 339 340 344 341 351 350 343 343 335 326 310 284 345 345 338 322 306 285 243 175 197 195 186 184 181 176 180 176 176 171 161 163
155 183 177 214 277 257 258 263 306 270 273 297 1 339 338 27 53 45 0 22 330 331 325 347 351 352 349 344 347 347 340 338 343 350 20 17 22 8 3 358 351 6 295 215 192 192 188 182 185 184 180 173 177 177
214 194 168 176 190 182 231 224 229 240 251 308 298 35 49 32 13 357 347 343 334 330 344 1 8 358 360 359 358 357 359 355 353 11 24 29 21 23 6 352 351 328 301 268 223 195 187 188 186 185 185 182 177 179
192 180 160 186 172 196 219 217 243 253 347 287 307 82 114 81 20 344 334 330 348 357 2 3 7 359 9 8 24 22 10 8 7 15 13 4 358 359 353 351 349 344 335 272 321 323 199 191 188 183 178 168 165 168
172 171 175 185 202 208 186 179 247 86 302 41 102 122 114 116 56 20 7 2 12 10 6 15 19 10 12 9 6 15 29 18 14 10 349 351 343 336 344 348 352 345 332 306 175 120 99 130 115 120 143 146 171 157
137 164 183 216 234 207 159 150 154 169 198 190 142 184 134 140 147 60 21 357 359 19 12 13 20 20 7 12 9 2 5 9 5 6 6 358 358 359 356 358 351 356 343 349 35 97 139 154 148 156 164 163 168 165
177 187 184 205 198 180 196 208 168 188 159 151 132 147 141 160 101 74 22 8 13 12 5 1 10 11 12 10 11 18 349 2 7 6 8 3 3 4 4 8 7 13 16 23 36 38 48 55 55 64 71 89 109 111
178 192 214 235 220 218 151 291 194 123 118 122 107 89 84 70 89 63 59 33 18 10 1 346 351 8 23 21 17 9 5 16 23 21 6 9 18 14 8 13 27 26 35 38 45 53 62 69 69 68 70 77 84 90